DW7680 Weather Reports


Display with metric or nautical units.
time (UTC)temp
F
wind
direction
speed
MPH
gust
MPH
rain 1hr
in
rain 24hr
in
rain mn
in
humidity
%
barometer
mb
20260831053101 59 239 4.0 9.0 0.00 0.00 0.00 68 1011.4
20260831051620 59 267 4.0 8.0 0.00 0.00 0.00 70 1011.3
20260831050059 59 267 4.0 7.0 0.00 0.00 0.00 69 1011.4
20260831044601 60 298 3.0 6.0 0.00 0.00 0.00 69 1011.4
20260831043059 60 281 3.0 7.0 0.00 0.00 0.00 68 1011.5
20260831041559 62 290 2.0 6.0 0.00 0.00 0.00 64 1011.4
20260831040059 62 292 3.0 5.0 0.00 0.00 0.00 64 1011.3
20260831034558 63 278 3.0 8.0 0.00 0.00 0.00 65 1011.1
20260831033103 65 303 2.0 5.0 0.00 0.00 0.00 59 1010.9
20260831031559 66 277 2.0 4.0 0.00 0.00 0.00 57 1010.8
20260831030059 68 291 2.0 5.0 0.00 0.00 0.00 55 1010.6
20260831030001 68 291 2.0 5.0 0.00 0.00 0.00 55 1010.6
20260831024616 69 289 2.0 3.0 0.00 0.01 0.00 53 1010.3
20260831024501 69 289 1.0 3.0 0.00 0.01 0.00 53 1010.2
20260831023100 71 289 2.0 5.0 0.00 0.01 0.00 50 1010.1
20260831023000 71 304 2.0 5.0 0.00 0.01 0.00 50 1010.0
20260831021604 74 132 0.0 3.0 0.00 0.01 0.00 41 1009.9
20260831020100 75 132 0.0 3.0 0.00 0.01 0.00 40 1009.6
20260831014559 76 132 1.0 4.0 0.00 0.03 0.00 39 1009.4
20260831013102 76 132 0.0 2.0 0.00 0.03 0.00 38 1009.3
20260831011600 77 132 1.0 3.0 0.00 0.03 0.00 37 1009.3
20260831010130 78 114 1.0 4.0 0.00 0.03 0.00 36 1009.4
20260831004559 79 104 2.0 6.0 0.00 0.03 0.00 36 1009.2
20260831003059 79 98 0.0 4.0 0.00 0.03 0.00 35 1009.3
20260831001607 80 116 3.0 8.0 0.00 0.03 0.00 35 1009.4
20260831000059 80 72 2.0 8.0 0.00 0.03 0.00 35 1009.5
20260830234559 80 115 3.0 11.0 0.00 0.03 0.00 34 1009.7
20260830233059 80 91 6.0 11.0 0.00 0.03 0.00 34 1009.6
20260830231559 80 88 6.0 14.0 0.00 0.03 0.00 35 1009.7
20260830230058 81 209 3.0 11.0 0.00 0.03 0.00 33 1009.7
20260830230001 81 204 3.0 11.0 0.00 0.03 0.00 33 1009.7
20260830224607 82 200 2.0 11.0 0.00 0.12 0.00 32 1009.8
20260830223103 82 80 2.0 7.0 0.00 0.12 0.00 32 1009.8
20260830221601 82 132 4.0 9.0 0.00 0.12 0.00 33 1010.1
20260830220121 82 129 4.0 10.0 0.00 0.12 0.00 33 1010.5
20260830214603 81 199 2.0 5.0 0.00 0.12 0.00 33 1010.6
20260830213058 80 355 2.0 3.0 0.00 0.12 0.00 33 1010.7
20260830211603 79 71 0.0 9.0 0.00 0.12 0.00 36 1011.1
20260830210103 79 134 8.0 14.0 0.00 0.12 0.00 38 1011.2
20260830204558 81 138 8.0 13.0 0.00 0.12 0.00 36 1011.2
20260830203119 82 210 5.0 17.0 0.00 0.12 0.00 33 1011.4
20260830201600 83 84 10.0 17.0 0.00 0.12 0.00 33 1011.4
20260830200103 83 109 5.0 18.0 0.00 0.12 0.00 31 1011.7
20260830194559 83 97 6.0 18.0 0.00 0.12 0.00 32 1011.8
20260830193059 82 21 5.0 11.0 0.00 0.12 0.00 31 1011.9
20260830191600 83 61 6.0 12.0 0.00 0.12 0.00 31 1012.0
20260830190059 83 153 6.0 16.0 0.00 0.12 0.00 30 1012.1
20260830184558 83 90 2.0 14.0 0.00 0.12 0.00 29 1012.2
20260830183119 82 126 6.0 16.0 0.00 0.12 0.00 29 1012.4
20260830181613 82 5 6.0 11.0 0.00 0.12 0.00 29 1012.4
20260830180110 83 89 3.0 13.0 0.00 0.12 0.00 27 1012.7
20260830174600 82 158 4.0 8.0 0.00 0.12 0.00 32 1012.7
20260830173131 81 55 4.0 12.0 0.00 0.12 0.00 35 1012.8
20260830171604 81 86 3.0 6.0 0.00 0.12 0.00 36 1012.7
20260830170057 80 67 1.0 6.0 0.00 0.12 0.00 39 1012.8
20260830164603 79 66 2.0 5.0 0.00 0.12 0.00 39 1013.0
20260830163105 77 282 2.0 8.0 0.00 0.12 0.00 43 1013.1
20260830161631 77 101 4.0 8.0 0.00 0.12 0.00 42 1013.3
20260830160058 76 133 4.0 8.0 0.00 0.12 0.00 43 1013.4
20260830154559 74 98 3.0 9.0 0.00 0.12 0.00 47 1013.6
20260830153059 73 104 3.0 7.0 0.00 0.12 0.00 46 1013.7
20260830151558 72 136 1.0 4.0 0.00 0.12 0.00 51 1013.8
20260830150059 68 263 0.0 2.0 0.00 0.12 0.00 57 1013.8
20260830144558 65 263 1.0 3.0 0.00 0.12 0.00 66 1014.1
20260830143105 62 275 2.0 4.0 0.00 0.12 0.00 69 1014.2
20260830141559 59 290 3.0 5.0 0.00 0.12 0.00 74 1014.3
20260830140108 59 293 1.0 4.0 0.00 0.12 0.00 73 1014.2
20260830134604 57 315 1.0 4.0 0.00 0.12 0.00 74 1014.3
20260830133103 56 296 2.0 4.0 0.00 0.12 0.00 74 1014.4
20260830131615 54 283 3.0 4.0 0.00 0.12 0.00 76 1014.3
20260830130104 54 276 2.0 5.0 0.00 0.12 0.00 77 1013.9
20260830124600 54 277 2.0 4.0 0.00 0.12 0.00 76 1013.6
20260830123059 55 265 3.0 7.0 0.00 0.12 0.00 74 1013.6
20260830121559 56 272 2.0 4.0 0.00 0.12 0.00 73 1013.5
20260830120101 55 267 3.0 7.0 0.00 0.12 0.00 75 1013.4
20260830114604 54 242 6.0 9.0 0.00 0.12 0.00 77 1013.3
20260830113058 54 257 3.0 7.0 0.00 0.12 0.00 78 1013.3
20260830111557 55 275 4.0 9.0 0.00 0.12 0.00 76 1013.1
20260830110122 55 254 4.0 8.0 0.00 0.12 0.00 77 1013.1
20260830104557 55 264 4.0 8.0 0.00 0.12 0.00 77 1013.2
20260830103057 56 265 2.0 7.0 0.00 0.12 0.00 76 1013.2
20260830101559 57 293 2.0 9.0 0.00 0.12 0.00 74 1013.2
20260830100057 56 302 3.0 6.0 0.00 0.12 0.00 76 1013.3
20260830094559 56 266 4.0 8.0 0.00 0.12 0.00 76 1013.3
20260830093130 59 303 2.0 6.0 0.00 0.12 0.00 71 1013.2
20260830091559 58 311 2.0 8.0 0.00 0.12 0.00 72 1013.2
20260830090103 59 265 2.0 7.0 0.00 0.12 0.00 70 1013.3
20260830084557 55 311 3.0 9.0 0.00 0.12 0.00 79 1013.3
20260830083057 56 304 3.0 6.0 0.00 0.12 0.00 77 1013.2
20260830081557 57 292 2.0 8.0 0.00 0.12 0.00 76 1013.3
20260830080058 59 294 3.0 8.0 0.00 0.12 0.00 73 1013.3
20260830074651 58 316 2.0 5.0 0.00 0.12 0.00 75 1013.3
20260830073109 57 240 2.0 5.0 0.00 0.12 0.00 80 1013.4
20260830071613 55 331 2.0 8.0 0.00 0.12 0.00 84 1013.6
20260830070059 55 292 3.0 6.0 0.00 0.12 0.00 84 1013.7
20260830070001 55 292 3.0 6.0 0.00 0.12 0.00 84 1013.7
20260830064600 56 266 4.0 7.0 0.00 0.12 0.00 84 1013.6
20260830063100 56 261 4.0 9.0 0.00 0.12 0.00 84 1013.7
20260830061603 56 273 2.0 8.0 0.00 0.12 0.00 83 1013.7
20260830060101 57 270 2.0 7.0 0.00 0.12 0.00 83 1013.9
20260830060004 57 260 3.0 7.0 0.00 0.12 0.00 83 1013.9
20260830054503 57 273 3.0 8.0 0.00 0.12 0.12 83 1014.0